| time (UTC) | temp F | wind direction | speed MPH | gust MPH | rain 1hr in | rain 24hr in | rain mn in | humidity % | barometer mb |
| 20260508113220 | 40 | 23 | 1.0 | 1.0 | 0.00 | 0.00 | 0.00 | 83 | 1012.4 |
| 20260508112715 | 40 | 23 | 1.0 | 2.0 | 0.00 | 0.00 | 0.00 | 83 | 1012.5 |
| 20260508112212 | 40 | 15 | 0.0 | 0.0 | 0.00 | 0.00 | 0.00 | 83 | 1012.4 |
| 20260508111709 | 41 | 7 | 0.0 | 1.0 | 0.00 | 0.00 | 0.00 | 83 | 1012.6 |
| 20260508111207 | 41 | 0 | 0.0 | 1.0 | 0.00 | 0.00 | 0.00 | 83 | 1012.6 |
| 20260508110704 | 41 | 15 | 0.0 | 0.0 | 0.00 | 0.00 | 0.00 | 82 | 1012.8 |
| 20260508110201 | 41 | 255 | 0.0 | 3.0 | 0.00 | 0.00 | 0.00 | 82 | 1012.5 |
| 20260508105700 | 41 | 180 | 0.0 | 1.0 | 0.00 | 0.00 | 0.00 | 82 | 1012.8 |
| 20260508105158 | 41 | 0 | 0.0 | 4.0 | 0.00 | 0.00 | 0.00 | 82 | 1012.8 |
| 20260508104655 | 41 | 9 | 0.0 | 3.0 | 0.00 | 0.00 | 0.00 | 82 | 1012.7 |
| 20260508104152 | 41 | 260 | 2.0 | 3.0 | 0.00 | 0.00 | 0.00 | 81 | 1013.1 |
| 20260508103649 | 41 | 274 | 2.0 | 4.0 | 0.00 | 0.00 | 0.00 | 81 | 1012.9 |
| 20260508103146 | 41 | 331 | 3.0 | 3.0 | 0.00 | 0.00 | 0.00 | 81 | 1012.8 |
| 20260508102643 | 41 | 5 | 0.0 | 3.0 | 0.00 | 0.00 | 0.00 | 80 | 1013.0 |
| 20260508102141 | 42 | 0 | 1.0 | 3.0 | 0.00 | 0.00 | 0.00 | 79 | 1013.0 |
| 20260508101638 | 42 | 262 | 0.0 | 0.0 | 0.00 | 0.00 | 0.00 | 78 | 1013.0 |
| 20260508101136 | 42 | 233 | 0.0 | 3.0 | 0.00 | 0.00 | 0.00 | 78 | 1013.1 |
| 20260508100633 | 42 | 311 | 0.0 | 4.0 | 0.00 | 0.00 | 0.00 | 78 | 1013.0 |
| 20260508100131 | 42 | 174 | 3.0 | 3.0 | 0.00 | 0.00 | 0.00 | 77 | 1013.2 |
| 20260508095627 | 42 | 203 | 0.0 | 4.0 | 0.00 | 0.00 | 0.00 | 76 | 1012.9 |
| 20260508095124 | 43 | 259 | 0.0 | 4.0 | 0.00 | 0.00 | 0.00 | 75 | 1012.8 |
| 20260508094621 | 43 | 190 | 2.0 | 2.0 | 0.00 | 0.00 | 0.00 | 74 | 1013.2 |
| 20260508094118 | 43 | 294 | 0.0 | 2.0 | 0.00 | 0.00 | 0.00 | 73 | 1013.0 |
| 20260508093615 | 43 | 283 | 2.0 | 4.0 | 0.00 | 0.00 | 0.00 | 73 | 1013.0 |
| 20260508093113 | 43 | 183 | 3.0 | 4.0 | 0.00 | 0.00 | 0.00 | 73 | 1013.2 |
| 20260508092610 | 43 | 170 | 3.0 | 4.0 | 0.00 | 0.00 | 0.00 | 73 | 1013.3 |
| 20260508092108 | 44 | 249 | 0.0 | 2.0 | 0.00 | 0.00 | 0.00 | 72 | 1013.2 |
| 20260508091605 | 44 | 255 | 0.0 | 3.0 | 0.00 | 0.00 | 0.00 | 70 | 1013.1 |
| 20260508091102 | 44 | 183 | 3.0 | 4.0 | 0.00 | 0.00 | 0.00 | 66 | 1013.2 |
| 20260508090600 | 44 | 175 | 0.0 | 3.0 | 0.00 | 0.00 | 0.00 | 57 | 1013.1 |
| 20260508090056 | 44 | 180 | 2.0 | 4.0 | 0.00 | 0.00 | 0.00 | 57 | 1013.0 |
| 20260508085553 | 45 | 184 | 2.0 | 5.0 | 0.00 | 0.00 | 0.00 | 58 | 1013.1 |
| 20260508085050 | 45 | 139 | 4.0 | 4.0 | 0.00 | 0.00 | 0.00 | 57 | 1013.1 |
| 20260508084547 | 45 | 170 | 3.0 | 9.0 | 0.00 | 0.00 | 0.00 | 56 | 1013.2 |
| 20260508084044 | 45 | 162 | 2.0 | 4.0 | 0.00 | 0.00 | 0.00 | 56 | 1013.4 |
| 20260508083541 | 45 | 180 | 2.0 | 4.0 | 0.00 | 0.00 | 0.00 | 56 | 1013.3 |
| 20260508083038 | 45 | 196 | 3.0 | 5.0 | 0.00 | 0.00 | 0.00 | 56 | 1013.2 |
| 20260508082534 | 45 | 151 | 2.0 | 6.0 | 0.00 | 0.00 | 0.00 | 56 | 1013.1 |
| 20260508082031 | 45 | 146 | 0.0 | 3.0 | 0.00 | 0.00 | 0.00 | 57 | 1013.4 |
| 20260508081529 | 45 | 143 | 2.0 | 3.0 | 0.00 | 0.00 | 0.00 | 57 | 1013.2 |
| 20260508081025 | 45 | 116 | 0.0 | 5.0 | 0.00 | 0.00 | 0.00 | 57 | 1013.4 |
| 20260508080523 | 45 | 160 | 3.0 | 5.0 | 0.00 | 0.00 | 0.00 | 57 | 1013.6 |
| 20260508080020 | 45 | 152 | 2.0 | 11.0 | 0.00 | 0.16 | 0.16 | 56 | 1013.4 |
| 20260508075516 | 45 | 126 | 0.0 | 5.0 | 0.00 | 0.16 | 0.16 | 58 | 1013.5 |
| 20260508075014 | 45 | 190 | 3.0 | 6.0 | 0.00 | 0.16 | 0.16 | 58 | 1013.7 |
| 20260508074512 | 45 | 83 | 1.0 | 5.0 | 0.00 | 0.16 | 0.16 | 58 | 1013.5 |
| 20260508074008 | 44 | 129 | 2.0 | 3.0 | 0.00 | 0.16 | 0.16 | 59 | 1013.7 |
| 20260508073505 | 45 | 195 | 0.0 | 5.0 | 0.00 | 0.16 | 0.16 | 59 | 1013.5 |
| 20260508073003 | 45 | 135 | 2.0 | 3.0 | 0.00 | 0.16 | 0.16 | 60 | 1013.6 |
| 20260508072458 | 45 | 112 | 2.0 | 4.0 | 0.00 | 0.16 | 0.16 | 59 | 1013.7 |
| 20260508071956 | 44 | 132 | 2.0 | 4.0 | 0.00 | 0.16 | 0.16 | 59 | 1013.8 |
| 20260508071454 | 45 | 155 | 3.0 | 4.0 | 0.00 | 0.16 | 0.16 | 60 | 1013.7 |
| 20260508070951 | 44 | 153 | 3.0 | 5.0 | 0.00 | 0.16 | 0.16 | 61 | 1014.0 |
| 20260508070449 | 44 | 148 | 2.0 | 3.0 | 0.00 | 0.16 | 0.16 | 61 | 1013.8 |
| 20260508065947 | 44 | 40 | 1.0 | 9.0 | 0.00 | 0.16 | 0.16 | 61 | 1014.0 |
| 20260508065444 | 44 | 169 | 5.0 | 5.0 | 0.00 | 0.16 | 0.16 | 62 | 1013.9 |
| 20260508064943 | 44 | 132 | 2.0 | 6.0 | 0.00 | 0.16 | 0.16 | 62 | 1013.6 |
| 20260508064440 | 45 | 90 | 0.0 | 8.0 | 0.00 | 0.16 | 0.16 | 62 | 1014.0 |
| 20260508063937 | 45 | 156 | 2.0 | 6.0 | 0.00 | 0.16 | 0.16 | 61 | 1013.7 |
| 20260508063434 | 45 | 145 | 1.0 | 12.0 | 0.00 | 0.16 | 0.16 | 62 | 1014.0 |
| 20260508062932 | 45 | 162 | 1.0 | 7.0 | 0.00 | 0.16 | 0.16 | 62 | 1013.9 |
| 20260508062429 | 45 | 127 | 2.0 | 4.0 | 0.00 | 0.16 | 0.16 | 63 | 1014.2 |
| 20260508061926 | 45 | 69 | 3.0 | 7.0 | 0.00 | 0.16 | 0.16 | 63 | 1014.0 |
| 20260508061424 | 45 | 151 | 4.0 | 7.0 | 0.00 | 0.16 | 0.16 | 63 | 1014.1 |
| 20260508060920 | 45 | 155 | 4.0 | 10.0 | 0.00 | 0.16 | 0.16 | 62 | 1013.8 |
| 20260508060418 | 45 | 155 | 4.0 | 14.0 | 0.00 | 0.16 | 0.16 | 62 | 1014.0 |
| 20260508055913 | 45 | 47 | 3.0 | 6.0 | 0.00 | 0.16 | 0.16 | 64 | 1014.1 |
| 20260508055410 | 45 | 71 | 3.0 | 5.0 | 0.00 | 0.16 | 0.16 | 64 | 1013.9 |
| 20260508054907 | 45 | 111 | 3.0 | 6.0 | 0.00 | 0.16 | 0.16 | 64 | 1014.0 |
| 20260508054404 | 45 | 151 | 8.0 | 11.0 | 0.00 | 0.16 | 0.16 | 63 | 1014.1 |
| 20260508053901 | 45 | 147 | 4.0 | 8.0 | 0.00 | 0.16 | 0.16 | 63 | 1014.1 |
| 20260508053358 | 45 | 175 | 4.0 | 7.0 | 0.00 | 0.16 | 0.16 | 63 | 1014.0 |
| 20260508052855 | 46 | 66 | 4.0 | 9.0 | 0.00 | 0.16 | 0.16 | 62 | 1014.1 |
| 20260508052353 | 46 | 150 | 3.0 | 12.0 | 0.00 | 0.16 | 0.16 | 62 | 1014.2 |
| 20260508051849 | 46 | 90 | 3.0 | 13.0 | 0.00 | 0.16 | 0.16 | 61 | 1013.9 |
| 20260508051345 | 46 | 102 | 2.0 | 10.0 | 0.00 | 0.16 | 0.16 | 62 | 1014.0 |
| 20260508050841 | 46 | 115 | 2.0 | 6.0 | 0.00 | 0.16 | 0.16 | 62 | 1014.1 |
| 20260508050338 | 46 | 124 | 6.0 | 12.0 | 0.00 | 0.16 | 0.16 | 61 | 1014.1 |
| 20260508045834 | 46 | 144 | 6.0 | 12.0 | 0.00 | 0.16 | 0.16 | 61 | 1014.1 |
| 20260508045332 | 46 | 47 | 3.0 | 6.0 | 0.00 | 0.16 | 0.16 | 61 | 1014.3 |
| 20260508044829 | 47 | 169 | 5.0 | 11.0 | 0.00 | 0.16 | 0.16 | 59 | 1014.4 |
| 20260508044325 | 47 | 211 | 5.0 | 13.0 | 0.00 | 0.16 | 0.16 | 60 | 1014.2 |
| 20260508043821 | 47 | 147 | 8.0 | 12.0 | 0.00 | 0.16 | 0.16 | 60 | 1014.0 |
| 20260508043319 | 47 | 182 | 6.0 | 6.0 | 0.00 | 0.16 | 0.16 | 60 | 1014.3 |
| 20260508042815 | 47 | 152 | 5.0 | 8.0 | 0.00 | 0.16 | 0.16 | 60 | 1014.5 |
| 20260508042313 | 47 | 115 | 2.0 | 9.0 | 0.00 | 0.16 | 0.16 | 58 | 1014.4 |
| 20260508041810 | 48 | 102 | 6.0 | 7.0 | 0.00 | 0.16 | 0.16 | 58 | 1014.4 |
| 20260508041306 | 48 | 185 | 3.0 | 8.0 | 0.00 | 0.16 | 0.16 | 58 | 1014.4 |
| 20260508040803 | 48 | 150 | 2.0 | 11.0 | 0.00 | 0.16 | 0.16 | 57 | 1014.4 |
| 20260508040301 | 48 | 124 | 4.0 | 13.0 | 0.00 | 0.16 | 0.16 | 58 | 1014.4 |
| 20260508035757 | 48 | 30 | 1.0 | 5.0 | 0.00 | 0.16 | 0.16 | 57 | 1014.4 |
| 20260508035255 | 48 | 90 | 2.0 | 7.0 | 0.00 | 0.16 | 0.16 | 56 | 1014.4 |
| 20260508034751 | 48 | 159 | 6.0 | 8.0 | 0.00 | 0.16 | 0.16 | 55 | 1014.4 |
| 20260508034249 | 48 | 137 | 5.0 | 13.0 | 0.00 | 0.16 | 0.16 | 55 | 1014.6 |
| 20260508033746 | 49 | 109 | 3.0 | 5.0 | 0.00 | 0.16 | 0.16 | 54 | 1014.7 |
| 20260508033244 | 49 | 175 | 3.0 | 7.0 | 0.00 | 0.16 | 0.16 | 54 | 1014.8 |
| 20260508032741 | 49 | 168 | 3.0 | 5.0 | 0.00 | 0.16 | 0.16 | 53 | 1014.6 |
| 20260508032238 | 49 | 209 | 3.0 | 7.0 | 0.00 | 0.16 | 0.16 | 53 | 1014.7 |
| 20260508031735 | 50 | 156 | 3.0 | 5.0 | 0.00 | 0.16 | 0.16 | 53 | 1014.7 |
| 20260508031231 | 50 | 143 | 3.0 | 13.0 | 0.00 | 0.16 | 0.16 | 52 | 1014.7 |
| 20260508030728 | 49 | 214 | 3.0 | 9.0 | 0.00 | 0.16 | 0.16 | 53 | 1014.6 |
| 20260508030225 | 49 | 84 | 3.0 | 11.0 | 0.00 | 0.16 | 0.16 | 52 | 1014.5 |
| 20260508025721 | 50 | 125 | 3.0 | 11.0 | 0.00 | 0.16 | 0.16 | 52 | 1014.7 |
| 20260508025219 | 50 | 135 | 2.0 | 5.0 | 0.00 | 0.16 | 0.16 | 52 | 1014.8 |
| 20260508024714 | 50 | 45 | 6.0 | 6.0 | 0.00 | 0.16 | 0.16 | 51 | 1015.1 |
| 20260508024212 | 50 | 114 | 0.0 | 10.0 | 0.00 | 0.16 | 0.16 | 52 | 1014.8 |
| 20260508023708 | 50 | 119 | 2.0 | 11.0 | 0.00 | 0.16 | 0.16 | 50 | 1014.9 |
| 20260508023206 | 50 | 151 | 3.0 | 11.0 | 0.00 | 0.16 | 0.16 | 52 | 1014.9 |
| 20260508022701 | 50 | 90 | 2.0 | 6.0 | 0.00 | 0.16 | 0.16 | 52 | 1015.2 |
| 20260508022158 | 50 | 150 | 3.0 | 12.0 | 0.00 | 0.16 | 0.16 | 50 | 1015.2 |
| 20260508021655 | 50 | 82 | 0.0 | 9.0 | 0.00 | 0.16 | 0.16 | 52 | 1015.2 |
| 20260508021150 | 50 | 134 | 11.0 | 11.0 | 0.00 | 0.16 | 0.16 | 52 | 1015.3 |
| 20260508020648 | 50 | 143 | 6.0 | 12.0 | 0.00 | 0.16 | 0.16 | 50 | 1015.3 |
| 20260508020145 | 51 | 59 | 0.0 | 11.0 | 0.00 | 0.16 | 0.16 | 50 | 1015.1 |
| 20260508015643 | 51 | 117 | 4.0 | 13.0 | 0.00 | 0.16 | 0.16 | 49 | 1015.0 |
| 20260508015140 | 51 | 122 | 3.0 | 12.0 | 0.00 | 0.16 | 0.16 | 49 | 1015.2 |
| 20260508014636 | 51 | 137 | 9.0 | 11.0 | 0.00 | 0.16 | 0.16 | 49 | 1015.2 |
| 20260508014132 | 51 | 132 | 6.0 | 13.0 | 0.00 | 0.16 | 0.16 | 48 | 1015.1 |
| 20260508013628 | 53 | 155 | 3.0 | 6.0 | 0.00 | 0.16 | 0.16 | 48 | 1015.2 |
| 20260508013125 | 52 | 194 | 4.0 | 9.0 | 0.00 | 0.16 | 0.16 | 46 | 1015.5 |
| 20260508012623 | 53 | 94 | 3.0 | 9.0 | 0.00 | 0.16 | 0.16 | 47 | 1015.6 |
| 20260508012120 | 52 | 174 | 0.0 | 5.0 | 0.00 | 0.16 | 0.16 | 55 | 1015.6 |
| 20260508011618 | 51 | 349 | 3.0 | 5.0 | 0.00 | 0.16 | 0.16 | 60 | 1015.7 |
| 20260508011115 | 51 | 231 | 2.0 | 2.0 | 0.00 | 0.16 | 0.16 | 59 | 1015.6 |
| 20260508010612 | 50 | 211 | 3.0 | 5.0 | 0.00 | 0.16 | 0.16 | 61 | 1015.4 |
| 20260508010110 | 51 | 146 | 2.0 | 7.0 | 0.00 | 0.16 | 0.16 | 60 | 1015.7 |
| 20260508005606 | 51 | 154 | 3.0 | 5.0 | 0.00 | 0.16 | 0.16 | 62 | 1015.4 |
| 20260508005103 | 53 | 194 | 5.0 | 9.0 | 0.00 | 0.16 | 0.16 | 57 | 1015.7 |
| 20260508004559 | 52 | 189 | 5.0 | 9.0 | 0.00 | 0.16 | 0.16 | 54 | 1015.7 |
| 20260508004056 | 51 | 228 | 2.0 | 5.0 | 0.00 | 0.16 | 0.16 | 52 | 1015.8 |
| 20260508003552 | 52 | 168 | 6.0 | 7.0 | 0.00 | 0.16 | 0.16 | 52 | 1015.7 |
| 20260508003050 | 52 | 41 | 2.0 | 7.0 | 0.00 | 0.16 | 0.16 | 54 | 1015.8 |
| 20260508002546 | 53 | 71 | 1.0 | 15.0 | 0.00 | 0.16 | 0.16 | 48 | 1015.7 |
| 20260508002043 | 53 | 75 | 6.0 | 14.0 | 0.00 | 0.16 | 0.16 | 46 | 1015.9 |
| 20260508001539 | 54 | 183 | 9.0 | 11.0 | 0.00 | 0.16 | 0.16 | 45 | 1015.8 |
| 20260508001035 | 56 | 173 | 5.0 | 10.0 | 0.00 | 0.16 | 0.16 | 44 | 1016.0 |
| 20260508000531 | 56 | 81 | 3.0 | 14.0 | 0.00 | 0.16 | 0.16 | 44 | 1016.2 |
| 20260508000029 | 55 | 139 | 2.0 | 10.0 | 0.00 | 0.16 | 0.16 | 47 | 1016.2 |
| 20260507235525 | 53 | 106 | 2.0 | 13.0 | 0.00 | 0.16 | 0.16 | 49 | 1016.1 |
| 20260507235023 | 52 | 189 | 5.0 | 8.0 | 0.00 | 0.16 | 0.16 | 51 | 1016.2 |
| 20260507234519 | 50 | 160 | 6.0 | 10.0 | 0.00 | 0.16 | 0.16 | 51 | 1016.3 |
| 20260507234016 | 50 | 151 | 5.0 | 7.0 | 0.00 | 0.16 | 0.16 | 57 | 1016.5 |
| 20260507233512 | 50 | 189 | 7.0 | 10.0 | 0.00 | 0.16 | 0.16 | 56 | 1016.3 |
| 20260507233011 | 50 | 156 | 7.0 | 13.0 | 0.00 | 0.16 | 0.16 | 51 | 1016.3 |
| 20260507232507 | 50 | 243 | 2.0 | 13.0 | 0.00 | 0.16 | 0.16 | 52 | 1016.5 |
| 20260507232004 | 50 | 75 | 2.0 | 15.0 | 0.00 | 0.16 | 0.16 | 52 | 1016.4 |
| 20260507231500 | 51 | 212 | 9.0 | 14.0 | 0.00 | 0.16 | 0.16 | 53 | 1016.3 |
| 20260507230958 | 51 | 188 | 16.0 | 17.0 | 0.00 | 0.16 | 0.16 | 58 | 1016.6 |
| 20260507230455 | 51 | 201 | 5.0 | 11.0 | 0.00 | 0.16 | 0.16 | 55 | 1016.5 |
| 20260507225950 | 51 | 147 | 9.0 | 18.0 | 0.00 | 0.16 | 0.16 | 50 | 1016.6 |
| 20260507225446 | 52 | 129 | 5.0 | 9.0 | 0.00 | 0.16 | 0.16 | 56 | 1016.5 |
| 20260507224943 | 50 | 348 | 0.0 | 9.0 | 0.00 | 0.16 | 0.16 | 59 | 1016.6 |
| 20260507224438 | 50 | 204 | 4.0 | 8.0 | 0.00 | 0.16 | 0.16 | 61 | 1016.6 |
| 20260507223935 | 50 | 180 | 1.0 | 9.0 | 0.00 | 0.16 | 0.16 | 62 | 1016.5 |
| 20260507223431 | 50 | 22 | 3.0 | 7.0 | 0.00 | 0.16 | 0.16 | 56 | 1016.6 |
| 20260507222929 | 49 | 176 | 7.0 | 11.0 | 0.00 | 0.16 | 0.16 | 63 | 1016.7 |
| 20260507222425 | 50 | 155 | 3.0 | 11.0 | 0.00 | 0.16 | 0.16 | 64 | 1016.7 |
| 20260507221922 | 49 | 267 | 3.0 | 9.0 | 0.00 | 0.16 | 0.16 | 58 | 1016.5 |
| 20260507221418 | 50 | 182 | 4.0 | 20.0 | 0.00 | 0.16 | 0.16 | 61 | 1016.6 |
| 20260507220914 | 51 | 178 | 0.0 | 8.0 | 0.00 | 0.16 | 0.16 | 54 | 1016.8 |
| 20260507220413 | 50 | 197 | 6.0 | 11.0 | 0.00 | 0.16 | 0.16 | 59 | 1016.8 |
| 20260507215909 | 51 | 134 | 5.0 | 10.0 | 0.00 | 0.16 | 0.16 | 51 | 1016.7 |
| 20260507215406 | 52 | 0 | 3.0 | 6.0 | 0.00 | 0.16 | 0.16 | 52 | 1016.6 |
| 20260507214903 | 51 | 103 | 0.0 | 7.0 | 0.00 | 0.16 | 0.16 | 52 | 1016.9 |
| 20260507214400 | 51 | 182 | 4.0 | 11.0 | 0.00 | 0.16 | 0.16 | 53 | 1016.8 |
| 20260507213856 | 51 | 148 | 6.0 | 14.0 | 0.00 | 0.16 | 0.16 | 54 | 1016.9 |
| 20260507213352 | 52 | 138 | 5.0 | 9.0 | 0.00 | 0.16 | 0.16 | 53 | 1016.7 |
| 20260507212850 | 52 | 144 | 3.0 | 9.0 | 0.00 | 0.16 | 0.16 | 54 | 1017.0 |
| 20260507212345 | 50 | 180 | 1.0 | 6.0 | 0.00 | 0.16 | 0.16 | 61 | 1016.9 |
| 20260507211842 | 51 | 59 | 4.0 | 4.0 | 0.00 | 0.16 | 0.16 | 60 | 1017.1 |
| 20260507211339 | 50 | 41 | 0.0 | 3.0 | 0.00 | 0.16 | 0.16 | 65 | 1017.2 |
| 20260507210836 | 49 | 319 | 2.0 | 3.0 | 0.00 | 0.16 | 0.16 | 68 | 1017.3 |
| 20260507210333 | 48 | 75 | 0.0 | 4.0 | 0.00 | 0.16 | 0.16 | 67 | 1017.2 |
| 20260507205829 | 47 | 57 | 1.0 | 2.0 | 0.00 | 0.16 | 0.16 | 67 | 1017.4 |
| 20260507205326 | 48 | 75 | 0.0 | 3.0 | 0.00 | 0.16 | 0.16 | 67 | 1017.2 |
| 20260507204822 | 48 | 352 | 2.0 | 2.0 | 0.00 | 0.16 | 0.16 | 65 | 1017.5 |
| 20260507204320 | 48 | 15 | 0.0 | 3.0 | 0.00 | 0.16 | 0.16 | 66 | 1017.5 |
| 20260507203818 | 47 | 127 | 3.0 | 3.0 | 0.00 | 0.16 | 0.16 | 65 | 1017.5 |
| 20260507203315 | 47 | 184 | 2.0 | 5.0 | 0.00 | 0.16 | 0.16 | 67 | 1017.5 |
| 20260507202811 | 47 | 29 | 0.0 | 4.0 | 0.00 | 0.16 | 0.16 | 67 | 1017.8 |
| 20260507202308 | 47 | 56 | 2.0 | 3.0 | 0.00 | 0.16 | 0.16 | 68 | 1017.6 |
| 20260507201803 | 47 | 155 | 3.0 | 5.0 | 0.00 | 0.16 | 0.16 | 67 | 1017.9 |
| 20260507201259 | 48 | 114 | 0.0 | 3.0 | 0.00 | 0.16 | 0.16 | 67 | 1017.6 |
| 20260507200755 | 48 | 41 | 2.0 | 4.0 | 0.00 | 0.16 | 0.16 | 68 | 1017.6 |
| 20260507200251 | 47 | 114 | 1.0 | 4.0 | 0.00 | 0.16 | 0.16 | 69 | 1017.7 |
| 20260507195747 | 48 | 83 | 1.0 | 3.0 | 0.00 | 0.16 | 0.16 | 70 | 1017.8 |
| 20260507195245 | 48 | 90 | 2.0 | 3.0 | 0.00 | 0.16 | 0.16 | 70 | 1017.9 |
| 20260507194742 | 47 | 129 | 5.0 | 7.0 | 0.00 | 0.16 | 0.16 | 69 | 1017.6 |
| 20260507194238 | 48 | 154 | 3.0 | 7.0 | 0.00 | 0.16 | 0.16 | 70 | 1017.8 |
| 20260507193735 | 49 | 126 | 1.0 | 5.0 | 0.00 | 0.16 | 0.16 | 68 | 1017.8 |
| 20260507193232 | 48 | 203 | 1.0 | 6.0 | 0.00 | 0.16 | 0.16 | 70 | 1017.7 |
| 20260507192728 | 49 | 215 | 1.0 | 5.0 | 0.00 | 0.16 | 0.16 | 69 | 1018.0 |
| 20260507192225 | 49 | 29 | 3.0 | 6.0 | 0.00 | 0.16 | 0.16 | 68 | 1018.1 |
| 20260507191720 | 48 | 123 | 0.0 | 5.0 | 0.00 | 0.16 | 0.16 | 69 | 1018.0 |